Location: Saluda
(35.2377°N, 82.3468°W)
Time: 17:37:18
(UTC+00:00)

Transit 2A - Pass Details

Date: 05 October 2022
Orbit: 598 x 959 km, 66.7° (Epoch: 06 December)

Event Time Altitude Azimuth Distance (km) Brightness Sun altitude
Rises 13:12:03 0° 330° (NNW) 3,014 8.6 19.9°
Reaches altitude 10° 13:14:16 10° 329° (NNW) 2,144 7.9 20.3°
Maximum altitude 13:19:07 73° 245° (WSW) 776 6.3 21.2°
Drops below altitude 10° 13:24:30 10° 162° (SSE) 2,368 9.3 22.2°
Sets 13:27:04 0° 160° (SSE) 3,355 10.0 22.7°
